Tracking 30072 objects as of 14-Jan-2025
HD Live streaming from Space Station
objects crossing your sky now

STARLINK-3843

Track STARLINK-3843 now!
10-day predictions
STARLINK-3843 is classified as:


NORAD ID: 52341
Int'l Code: 2022-045L
Perigee: 546.1 km
Apogee: 547.6 km
Inclination: 53.2 °
Period: 95.4 minutes
Semi major axis: 6917 km
RCS: Unknown
Launch date: April 29, 2022
Source: United States (US)
Launch site: AIR FORCE EASTERN TEST RANGE (AFETR)
Your satellite tracking list
Your tracking list is empty




NASA's NSSDC Master Catalog

Two Line Element Set (TLE):
1 52341U 22045L   25013.79586890  .00005472  00000-0  36156-3 0  9993
2 52341  53.2179 294.0482 0001126 113.4080 246.7030 15.08848516152253
Source of the keplerian elements: AFSPC